Location: Владивосток
(43.1151°N, 131.8856°E)
Time: 05:21:09
(UTC+10:00)

LO-87 - Pass Details

Date: 02 July 2022
Orbit: 451 x 466 km, 97.4° (Epoch: 08 August)

Event Time Altitude Azimuth Distance (km) Brightness Sun altitude
Exits shadow 01:38:37 17° 290° (WNW) 1,236 ? -23.6°
Drops below altitude 10° 01:40:10 10° 314° (NW) 1,616 ? -23.6°
Sets 01:42:39 0° 332° (NNW) 2,501 ? -23.5°
